| time (UTC) | temp C | wind direction | speed KPH | gust KPH | rain 1hr cm | rain 24hr cm | rain mn cm | humidity % | barometer mb |
| 20260506061552 | 15 | 200 | 1.6 | 17.7 | 0.00 | 0.00 | 0.00 | 78 | 1010.4 |
| 20260506044533 | 16 | 190 | 3.2 | 9.7 | 0.00 | 0.00 | 0.00 | 72 | 1010.9 |
| 20260506043032 | 16 | 155 | 1.6 | 12.9 | 0.00 | 0.00 | 0.00 | 72 | 1010.9 |
| 20260506041531 | 16 | 187 | 1.6 | 14.5 | 0.00 | 0.00 | 0.00 | 70 | 1010.9 |
| 20260506040029 | 16 | 186 | 3.2 | 16.1 | 0.00 | 0.00 | 0.00 | 70 | 1011.0 |
| 20260506034531 | 16 | 194 | 4.8 | 16.1 | 0.00 | 0.00 | 0.00 | 70 | 1011.0 |
| 20260506033027 | 16 | 131 | 1.6 | 16.1 | 0.00 | 0.00 | 0.00 | 71 | 1010.9 |
| 20260506031525 | 15 | 195 | 0.0 | 12.9 | 0.00 | 0.00 | 0.00 | 71 | 1010.8 |
| 20260506030036 | 15 | 95 | 0.0 | 9.7 | 0.00 | 0.00 | 0.00 | 71 | 1010.8 |
| 20260506024546 | 15 | 193 | 0.0 | 6.4 | 0.00 | 0.00 | 0.00 | 72 | 1010.9 |
| 20260506023023 | 15 | 74 | 0.0 | 0.0 | 0.00 | 0.00 | 0.00 | 72 | 1010.9 |
| 20260506021521 | 15 | 76 | 0.0 | 12.9 | 0.00 | 0.00 | 0.00 | 71 | 1011.0 |
| 20260506020017 | 15 | 198 | 1.6 | 17.7 | 0.00 | 0.00 | 0.00 | 71 | 1010.9 |
| 20260506014514 | 15 | 182 | 0.0 | 11.3 | 0.00 | 0.00 | 0.00 | 71 | 1010.8 |
| 20260506013018 | 15 | 88 | 0.0 | 12.9 | 0.00 | 0.00 | 0.00 | 69 | 1010.6 |
| 20260506011542 | 15 | 129 | 0.0 | 9.7 | 0.00 | 0.00 | 0.00 | 69 | 1010.6 |
| 20260506010038 | 16 | 151 | 0.0 | 11.3 | 0.00 | 0.00 | 0.00 | 68 | 1010.3 |
| 20260506004533 | 16 | 200 | 0.0 | 12.9 | 0.00 | 0.00 | 0.00 | 67 | 1010.2 |
| 20260506003034 | 16 | 174 | 0.0 | 1.6 | 0.00 | 0.00 | 0.00 | 67 | 1010.1 |
| 20260506001526 | 16 | 151 | 0.0 | 11.3 | 0.00 | 0.00 | 0.00 | 66 | 1009.8 |
| 20260506000023 | 17 | 118 | 0.0 | 6.4 | 0.00 | 0.00 | 0.00 | 64 | 1009.6 |
| 20260505234617 | 17 | 143 | 0.0 | 6.4 | 0.00 | 0.00 | 0.00 | 63 | 1009.3 |
| 20260505233018 | 18 | 146 | 0.0 | 3.2 | 0.00 | 0.00 | 0.00 | 61 | 1009.0 |
| 20260505231509 | 19 | 205 | 0.0 | 8.0 | 0.00 | 0.00 | 0.00 | 59 | 1008.8 |
| 20260505230015 | 20 | 161 | 0.0 | 8.0 | 0.00 | 0.00 | 0.00 | 57 | 1008.7 |
| 20260505224534 | 20 | 154 | 0.0 | 12.9 | 0.00 | 0.00 | 0.00 | 54 | 1008.4 |
| 20260505223031 | 21 | 110 | 0.0 | 14.5 | 0.00 | 0.00 | 0.00 | 54 | 1008.0 |
| 20260505221523 | 21 | 55 | 0.0 | 11.3 | 0.00 | 0.00 | 0.00 | 53 | 1007.9 |
| 20260505220022 | 21 | 194 | 0.0 | 14.5 | 0.00 | 0.00 | 0.00 | 53 | 1008.0 |
| 20260505214520 | 22 | 165 | 0.0 | 14.5 | 0.00 | 0.00 | 0.00 | 52 | 1008.0 |
| 20260505213017 | 22 | 166 | 0.0 | 12.9 | 0.00 | 0.00 | 0.00 | 51 | 1008.0 |
| 20260505211515 | 22 | 180 | 0.0 | 19.3 | 0.00 | 0.00 | 0.00 | 52 | 1007.7 |
| 20260505210014 | 23 | 188 | 1.6 | 11.3 | 0.00 | 0.00 | 0.00 | 51 | 1007.8 |
| 20260505204514 | 23 | 174 | 1.6 | 17.7 | 0.00 | 0.00 | 0.00 | 49 | 1007.7 |
| 20260505203013 | 23 | 201 | 0.0 | 14.5 | 0.00 | 0.00 | 0.00 | 50 | 1007.7 |
| 20260505201612 | 24 | 167 | 3.2 | 14.5 | 0.00 | 0.00 | 0.00 | 49 | 1007.6 |
| 20260505200042 | 24 | 157 | 0.0 | 29.0 | 0.00 | 0.00 | 0.00 | 47 | 1007.6 |
| 20260505194547 | 25 | 171 | 0.0 | 17.7 | 0.00 | 0.00 | 0.00 | 47 | 1007.7 |
| 20260505193037 | 25 | 169 | 0.0 | 29.0 | 0.00 | 0.00 | 0.00 | 46 | 1007.6 |
| 20260505191537 | 25 | 178 | 1.6 | 17.7 | 0.00 | 0.00 | 0.00 | 45 | 1007.7 |
| 20260505190034 | 25 | 168 | 3.2 | 16.1 | 0.00 | 0.00 | 0.00 | 46 | 1007.9 |
| 20260505184535 | 25 | 157 | 1.6 | 20.9 | 0.00 | 0.00 | 0.00 | 45 | 1008.0 |
| 20260505183032 | 25 | 170 | 0.0 | 17.7 | 0.00 | 0.00 | 0.00 | 44 | 1008.0 |
| 20260505181529 | 25 | 183 | 6.4 | 22.5 | 0.00 | 0.00 | 0.00 | 45 | 1008.0 |
| 20260505180026 | 24 | 176 | 0.0 | 11.3 | 0.00 | 0.00 | 0.00 | 49 | 1008.3 |
| 20260505174525 | 24 | 114 | 3.2 | 17.7 | 0.00 | 0.00 | 0.00 | 51 | 1008.6 |
| 20260505171521 | 24 | 119 | 3.2 | 17.7 | 0.00 | 0.00 | 0.00 | 50 | 1009.0 |
| 20260505170024 | 23 | 125 | 0.0 | 29.0 | 0.00 | 0.00 | 0.00 | 52 | 1008.9 |
| 20260505164537 | 23 | 173 | 3.2 | 30.6 | 0.00 | 0.00 | 0.00 | 50 | 1009.3 |
| 20260505163051 | 22 | 238 | 1.6 | 14.5 | 0.00 | 0.00 | 0.00 | 53 | 1009.3 |
| 20260505161543 | 22 | 181 | 3.2 | 22.5 | 0.00 | 0.00 | 0.00 | 56 | 1009.7 |
| 20260505153037 | 19 | 212 | 1.6 | 11.3 | 0.00 | 0.00 | 0.00 | 63 | 1010.4 |
| 20260505151526 | 18 | 197 | 0.0 | 14.5 | 0.00 | 0.00 | 0.00 | 64 | 1010.6 |
| 20260505124547 | 13 | 134 | 0.0 | 8.0 | 0.00 | 0.00 | 0.00 | 79 | 1011.1 |
| 20260505123043 | 13 | 196 | 0.0 | 12.9 | 0.00 | 0.00 | 0.00 | 82 | 1011.2 |
| 20260505121543 | 12 | 209 | 4.8 | 16.1 | 0.00 | 0.00 | 0.00 | 82 | 1011.2 |
| 20260505120041 | 12 | 193 | 0.0 | 8.0 | 0.00 | 0.00 | 0.00 | 85 | 1011.0 |
| 20260505114545 | 11 | 176 | 1.6 | 12.9 | 0.00 | 0.00 | 0.00 | 86 | 1011.1 |
| 20260505113020 | 11 | 159 | 0.0 | 11.3 | 0.00 | 0.00 | 0.00 | 88 | 1011.0 |
| 20260505111520 | 11 | 153 | 0.0 | 4.8 | 0.00 | 0.00 | 0.00 | 89 | 1010.8 |
| 20260505101652 | 8 | 85 | 0.0 | 0.0 | 0.00 | 0.00 | 0.00 | 90 | 1010.3 |
| 20260505100052 | 8 | 84 | 0.0 | 0.0 | 0.00 | 0.00 | 0.00 | 89 | 1010.3 |
| 20260505094546 | 8 | 84 | 0.0 | 0.0 | 0.00 | 0.00 | 0.00 | 89 | 1010.2 |
| 20260505093046 | 8 | 84 | 0.0 | 0.0 | 0.00 | 0.00 | 0.00 | 89 | 1010.2 |
| 20260505091555 | 8 | 84 | 0.0 | 0.0 | 0.00 | 0.00 | 0.00 | 89 | 1010.4 |
| 20260505090054 | 8 | 84 | 0.0 | 0.0 | 0.00 | 0.00 | 0.00 | 89 | 1010.5 |
| 20260505084545 | 8 | 84 | 0.0 | 0.0 | 0.00 | 0.00 | 0.00 | 89 | 1010.5 |
| 20260505083047 | 8 | 84 | 0.0 | 0.0 | 0.00 | 0.00 | 0.00 | 88 | 1010.5 |
| 20260505081555 | 8 | 84 | 0.0 | 0.0 | 0.00 | 0.00 | 0.00 | 88 | 1010.6 |
| 20260505080042 | 8 | 84 | 0.0 | 0.0 | 0.00 | 0.00 | 0.00 | 87 | 1010.8 |
| 20260505074547 | 8 | 84 | 0.0 | 0.0 | 0.00 | 0.00 | 0.00 | 87 | 1010.9 |
| 20260505073036 | 8 | 84 | 0.0 | 0.0 | 0.00 | 0.00 | 0.00 | 87 | 1010.8 |
| 20260505071533 | 8 | 84 | 0.0 | 0.0 | 0.00 | 0.00 | 0.00 | 86 | 1010.7 |